{"data":{"norad_id":58537,"intl_designator":"2023-192G","name":"STARLINK-31041","alt_names":[],"object_type":"PAYLOAD","status":"ACTIVE","operator":null,"country":"US","launch_date":"2023-12-08","launch_site_code":"AFWTR","launch_vehicle":null,"mission":null,"orbit_class":"UNKNOWN","rcs_meters":null,"size_class":null,"mass_kg":null,"dimensions":null,"purposes":["comms"],"wikipedia_slug":null,"has_3d_model":false,"image_url":null,"decayed_at":null,"tle_current":{"epoch":"2026-05-25T01:33:22.614912Z","epoch_age_seconds":80176,"freshness":"FRESH","line1":"1 58537U 23192G   26145.06484508 -.00000760  00000+0 -11360-4 0  9997","line2":"2 58537  53.1612  67.6388 0000908  92.1937 267.9170 15.34394667137689","mean_motion":15.34394667,"eccentricity":9.08e-5,"inclination_deg":53.1612,"raan_deg":67.6388,"arg_perigee_deg":92.1937,"mean_anomaly_deg":267.917,"bstar":-1.136e-5,"rev_number":13768,"period_min":93.848084262144,"perigee_km":462.09794131983,"apogee_km":463.34024078596,"semimajor_km":6840.8560910529,"source":"CELESTRAK","updated_at":"2026-05-25T13:38:18.661387Z"}}}